Starlink 32399

operational
NORAD ID: 61627 Int'l Des: 2024-191 Owner: SPXS Country: US Constellation: starlink
LEOCIRCULAR

关于 Starlink 32399

正在加载描述...

实时位置

正在加载3D地球...

即将过境

高度历史

Altitude vs Time

uPlot chart will show altitude changes over time

两行轨道根数

1 61627U 24191G 25306.26078015 .00000874 00000-0 41289-4 0 9991
2 61627 43.0017 146.7230 0001052 265.8517 94.2215 15.27571853 58138
Epoch: Nov 2, 2025 • Age: 20 hours

当前状态

高度 482.7 km
速度 7.63 km/s
星下点 1.43°N, 60.8°E
发射日期 Oct 23, 2024
运行时间 1 years
类型 internet

技术详情

分类 Payload
质量 730.00 kg
干质量 700.00 kg
总质量 730.00 kg
长度 0.30 m
直径 4.10 m
跨度 29.00 m
形状 Box + pan
制造商 SPXS
平台类型 Starlink V2M
阶段状态 In Orbit
所有者/国家 SPXS/US

大型星座

Loading constellations...